Regional Weather Roundup
Issued by NWS New Orleans/Baton Rouge, LA

Home | Current Version | Previous Version | Text Only | Print | Product List | Glossary Off
Versions: 1 2 3 4 5 6 7 8 9 10 11 12 13 14 15 16 17 18 19 20 21 22 23 24 25 26 27 28 29 30 31 32 33 34 35 36 37 38 39 40 41 42 43 44 45 46 47 48 49 50

468
ASUS44 KLIX 271801
RWRLIX
NEW ORLEANS REGIONAL WEATHER ROUNDUP
NATIONAL WEATHER SERVICE NEW ORLEANS LA
100 PM CDT SUN JUL 27 2014

NOTE: "FAIR" INDICATES FEW OR NO CLOUDS BELOW 12,000 FEET WITH NO
      SIGNIFICANT WEATHER AND/OR OBSTRUCTIONS TO VISIBILITY.
      SKY/WX - SKY CONDITION AND SIGNIFICANT WEATHER.
      TMP - AIR TEMPERATURE.     DP    - DEWPOINT TEMPERATURE.
      RH  - RELATIVE HUMIDITY.   PRES  - PRESSURE.
      HI  - HEAT INDEX.          WCI   - WIND CHILL INDEX.

*  THESE STATIONS ARE NOT NWS OR FAA STATIONS AND ARE NOT UNDER
   NWS QUALITY CONTROL.

LAZ038-040-048-061>063-065>067-069-271900-
SOUTHEAST LOUISIANA

CITY           SKY/WX    TMP DP  RH WIND       PRES   REMARKS
N.O. AUDUBON   NOT AVBL
N.O. INTL ARPT MOSUNNY   91  72  53 NW9       30.09F HX  98
6HR MIN TEMP:  79; 6HR MAX TEMP:  92;

N.O. LAKEFRONT MOSUNNY   89  77  67 NW7       30.10F HX 101
6HR MIN TEMP:  81; 6HR MAX TEMP:  89;

N.O. DOWNTOWN*   N/A     91  70  49 SW9       30.09F HX  97
6HR MIN TEMP:  81; 6HR MAX TEMP:  91;

SLIDELL        SUNNY     91  73  55 SW8       30.08F HX  99
6HR MIN TEMP:  77; 6HR MAX TEMP:  91;

BATON ROUGE    PTSUNNY   91  73  55 W7        30.09F HX  99
6HR MIN TEMP:  78; 6HR MAX TEMP:  92;

BOOTHVILLE     PTSUNNY   86  76  71 VRB6      30.11F HX  96
6HR MIN TEMP:  78; 6HR MAX TEMP:  87; 6HR PCP:  0.25;

BELLE CHASSE   MOSUNNY   91  72  53 W8        30.09F HX  98
6HR MIN TEMP:  77; 6HR MAX TEMP:  92;

BOGALUSA*        N/A     92  72  51 W8        30.10F HX  98
6HR MIN TEMP:  78; 6HR MAX TEMP:  92;

GALLIANO*      NOT AVBL
NEW ROADS*       N/A     90  75  59 SW8       30.09F HX 100
6HR MIN TEMP:  75; 6HR MAX TEMP:  91;

GONZALES*        N/A     90  75  61 CALM      30.08F HX 101
6HR MIN TEMP:  76; 6HR MAX TEMP:  90;

HAMMOND*       MOSUNNY   93  68  43 W7        30.10F HX  97
HOUMA*         NOT AVBL
PORT FOURCHON* CLEAR     88  75  66 W10       30.13S HX  97

$$

MSZ070-080>082-271900-
SOUTHERN MISSISSIPPI

CITY           SKY/WX    TMP DP  RH WIND       PRES   REMARKS
MCCOMB         SUNNY     90  73  57 W8        30.09F HX  98
6HR MIN TEMP:  76; 6HR MAX TEMP:  90;

GULFPORT       MOSUNNY   92  71  50 VRB5      30.08S HX  98
6HR MIN TEMP:  80; 6HR MAX TEMP:  95;

BILOXI         MOSUNNY   88  76  67 SW10      30.08F HX  99
6HR MIN TEMP:  80; 6HR MAX TEMP:  91;

PASCAGOULA     MOSUNNY   91  76  61 S9        30.08F HX 103
6HR MIN TEMP:  78; 6HR MAX TEMP:  92;


$$

COASTAL OBSERVATIONS
LAKE AND NEARSHORE STATIONS

STATION/POSITION TIME  TEMP    WIND        PRES    WAVE
                       AIR SEA DIR/SP/G            HT/PER
                 (UTC) (F)     (DEG/KT/KT) (MB)    (FT/S)
PASCAGOULA       1721   87     240/ 11/ 14 1018.7
WAVELAND YACHT   1721   88     310/  5/ 10 1018.6
GRAND ISLE       1721   86 85  270/  8/ 10 1020.6
SOUTHWEST PASS   1721   87 84  300/  5/ 10 1020.4
NEW CANAL        1721   86 84  350/  5/  6 1019.7
SHELL BEACH      1721   85 83  360/  5/  7 1019.3

OFFSHORE STATIONS

STATION/POSITION TIME  TEMP    WIND        PRES    WAVE
                       AIR SEA DIR/SP/G            HT/PER
                 (UTC) (F)     (DEG/KT/KT) (MB)    (FT/S)
64 S DAUPHIN ISL 1708   83 88  260/  8/ 10 1019.8

$$




USA.gov is the U.S. government's official web portal to all federal, state and local government web resources and services.